Flag for U.S.A. Weather past 2 weeks in San Luis Obispo, California, U.S.A.

Now
58 °F

Clear.


Feels Like: 58 °F
Forecast: 59 / 82 °F
Wind: No wind

Location: San Luis Obispo County-Mc Chesney Field

Current Time: Sep 1, 2014 at 1:35:45 AM

Latest Report: Sep 1, 2014 at 12:56 AM


Visibility: 9 mi

Pressure: 29.84 "Hg

Humidity: 87%

Dew point: 54 °F

Location of San Luis ObispoLocation

Historic Weather in San Luis Obispo — Graph

°F

San Luis Obispo temperature yesterday

Maximum temperature yesterday: 85 °F (at 10:56 AM)
Minimum temperature yesterday: 57 °F (at 4:56 AM)
Average temperature yesterday: 66 °F

Past Weeks' High & Low Weather Summary

 TemperatureHumidityPressure
High92 °F (Aug 30, 11:56 AM)100% (Aug 30, 2:56 AM)30.06 "Hg (Aug 30, 2:56 AM)
Low52 °F (Aug 26, 4:56 AM)21% (Aug 30, 10:56 AM)29.80 "Hg (Aug 30, 1:56 PM)
Average65 °F74%29.92 "Hg
* Reported Aug 16 11:56 PM — Aug 31 11:56 PM, San Luis Obispo, Weather by CustomWeather, © 2014

Note: Actual official high and low records may vary slightly from our data, if they occured in-between our weather recording intervals... More about our weather records

Advertising

San Luis Obispo weather history for previous 24 hours

 ConditionsComfort  
Time TempWeatherWind HumidityBarometerVisibility
11:56 PM
Aug 31
59 °FClear.No wind90%29.84 "Hg9 mi
10:56 PM59 °FClear.No wind90%29.84 "Hg8 mi
9:56 PM60 °FClear.7 mph90%29.83 "Hg9 mi
8:56 PM60 °FClear.9 mph90%29.83 "Hg9 mi
7:56 PM61 °FSunny.16 mph87%29.82 "Hg10 mi
6:56 PM65 °FSunny.16 mph76%29.81 "Hg10 mi
5:56 PM69 °FSunny.20 mph66%29.81 "Hg10 mi
4:56 PM72 °FSunny.21 mph59%29.81 "Hg10 mi
3:56 PM75 °FSunny.23 mph52%29.81 "Hg10 mi
2:56 PM77 °FSunny.23 mph47%29.83 "Hg10 mi
1:56 PM78 °FSunny.23 mph46%29.85 "Hg10 mi
12:56 PM75 °FSunny.22 mph54%29.85 "Hg10 mi
11:56 AM77 °FSunny.21 mph48%29.86 "Hg10 mi
10:56 AM85 °FSunny.13 mph35%29.87 "Hg10 mi
9:56 AM78 °FSunny.10 mph42%29.88 "Hg10 mi
8:56 AM70 °FSunny.No wind61%29.87 "Hg10 mi
7:56 AM63 °FSunny.5 mph78%29.86 "Hg10 mi
6:56 AM58 °FClear.No wind87%29.86 "Hg9 mi
5:56 AM58 °FClear.5 mph90%29.85 "Hg9 mi
4:56 AM57 °FClear.No wind87%29.84 "Hg10 mi
3:56 AM58 °FClear.No wind84%29.83 "Hg10 mi
2:56 AM58 °FClear.No wind84%29.84 "Hg10 mi
1:56 AM59 °FClear.No wind84%29.85 "Hg10 mi
Weather by CustomWeather, © 2014

See weather overviewHow to use our weather pages